When you browse on this site, cookies collect data to enhance your experience and personalize the content and advertising you see.
Visit our Privacy Policy to learn more. By continuing to use the site, you agree to this use of cookies and data.
  • In United Kingdom
  • List of Countries
  • For 7 days
  • Water Temperature
  • Weather Map
  • Weather Widgets
  • user-avatar
    Login

    Hourly Weather Petrushiv

    Today, 17 August, Saturday

    Time Temperature Precipitation Wind Pressure Humidity
    00:00 +15°C° 0 mm 1 mps 714 mmHg 84%
    01:00 +14°C° 0 mm 2 mps 713 mmHg 84%
    02:00 +10°C° 0 mm 1 mps 713 mmHg 91%
    03:00 +12°C° 0 mm 1 mps 713 mmHg 86%
    04:00 +10°C° 0 mm 2 mps 713 mmHg 88%
    05:00 +12°C° 0 mm 1 mps 713 mmHg 81%
    06:00 +12°C° 0 mm 1 mps 714 mmHg 80%
    07:00 +13°C° 0 mm 1 mps 714 mmHg 80%
    08:00 +14°C° 0 mm 0 mps 714 mmHg 76%
    09:00 +16°C° 0 mm 0 mps 715 mmHg 70%
    10:00 +20°C° 0 mm 1 mps 715 mmHg 64%
    11:00 +21°C° 0 mm 1 mps 715 mmHg 56%
    12:00 +22°C° 0 mm 1 mps 715 mmHg 54%
    13:00 +23°C° 0 mm 1 mps 715 mmHg 51%
    14:00 +23°C° 0 mm 2 mps 715 mmHg 49%
    15:00 +23°C° 0 mm 2 mps 715 mmHg 46%
    16:00 +23°C° 0 mm 2 mps 714 mmHg 47%
    17:00 +23°C° 0 mm 2 mps 714 mmHg 49%
    18:00 +23°C° 0 mm 2 mps 714 mmHg 53%
    19:00 +22°C° 0 mm 1 mps 714 mmHg 61%
    20:00 +21°C° 0 mm 1 mps 714 mmHg 63%
    21:00 +20°C° 0 mm 1 mps 714 mmHg 66%
    22:00 +19°C° 0 mm 1 mps 714 mmHg 70%
    23:00 +19°C° 0 mm 1 mps 714 mmHg 71%

    Tomorrow, 18 August, Sunday

    Time Temperature Precipitation Wind Pressure Humidity
    00:00 +18°C° 0 mm 1 mps 714 mmHg 74%
    01:00 +16°C° 0 mm 2 mps 714 mmHg 76%
    02:00 +16°C° 0 mm 2 mps 714 mmHg 77%
    03:00 +16°C° 0 mm 2 mps 714 mmHg 76%
    04:00 +16°C° 0 mm 2 mps 714 mmHg 77%
    05:00 +15°C° 0 mm 1 mps 714 mmHg 77%
    06:00 +15°C° 0 mm 1 mps 714 mmHg 78%
    07:00 +15°C° 0 mm 2 mps 714 mmHg 78%
    08:00 +17°C° 0 mm 2 mps 715 mmHg 76%
    09:00 +20°C° 0 mm 1 mps 715 mmHg 70%
    10:00 +20°C° 0 mm 0 mps 716 mmHg 65%
    11:00 +23°C° 0 mm 1 mps 716 mmHg 61%
    12:00 +24°C° 0 mm 2 mps 716 mmHg 58%
    13:00 +25°C° 0 mm 2 mps 716 mmHg 57%
    14:00 +25°C° 0 mm 3 mps 716 mmHg 57%
    15:00 +26°C° 0 mm 3 mps 716 mmHg 53%
    16:00 +26°C° 0 mm 2 mps 715 mmHg 51%
    17:00 +26°C° 0 mm 2 mps 716 mmHg 49%
    18:00 +26°C° 0 mm 2 mps 716 mmHg 55%
    19:00 +25°C° 0 mm 1 mps 715 mmHg 64%
    20:00 +24°C° 0 mm 1 mps 716 mmHg 67%
    21:00 +23°C° 0 mm 1 mps 716 mmHg 68%
    22:00 +23°C° 0 mm 1 mps 715 mmHg 69%
    23:00 +22°C° 0 mm 1 mps 716 mmHg 69%

    Day after tomorrow, 19 August, Monday

    Time Temperature Precipitation Wind Pressure Humidity
    00:00 +22°C° 0 mm 1 mps 716 mmHg 71%
    01:00 +21°C° 0 mm 1 mps 716 mmHg 75%
    02:00 +20°C° 0 mm 2 mps 716 mmHg 77%
    03:00 +19°C° 0 mm 2 mps 716 mmHg 78%
    04:00 +19°C° 0 mm 2 mps 716 mmHg 80%
    05:00 +19°C° 0 mm 2 mps 716 mmHg 81%
    06:00 +18°C° 0 mm 2 mps 716 mmHg 82%
    07:00 +19°C° 0 mm 2 mps 717 mmHg 81%
    08:00 +21°C° 0 mm 2 mps 717 mmHg 78%
    09:00 +23°C° 0 mm 2 mps 717 mmHg 72%
    10:00 +25°C° 0 mm 1 mps 718 mmHg 68%
    11:00 +26°C° 0 mm 1 mps 718 mmHg 64%
    12:00 +27°C° 0 mm 2 mps 718 mmHg 61%
    13:00 +28°C° 0 mm 2 mps 718 mmHg 60%
    14:00 +29°C° 0 mm 2 mps 718 mmHg 58%
    15:00 +29°C° 0 mm 2 mps 718 mmHg 57%
    16:00 +29°C° 0 mm 1 mps 717 mmHg 55%
    17:00 +29°C° 0 mm 1 mps 717 mmHg 53%
    18:00 +29°C° 0 mm 1 mps 717 mmHg 56%
    19:00 +28°C° 0 mm 1 mps 717 mmHg 62%
    20:00 +27°C° 0 mm 1 mps 717 mmHg 62%
    21:00 +26°C° 0 mm 1 mps 717 mmHg 66%
    22:00 +24°C° 0 mm 2 mps 717 mmHg 84%
    23:00 +24°C° 0 mm 2 mps 717 mmHg 82%

    20 August, Tuesday

    Time Temperature Precipitation Wind Pressure Humidity
    00:00 +24°C° 0 mm 2 mps 717 mmHg 80%
    01:00 +23°C° 0 mm 2 mps 717 mmHg 82%
    02:00 +23°C° 0 mm 2 mps 717 mmHg 81%
    03:00 +23°C° 0 mm 2 mps 717 mmHg 82%
    04:00 +21°C° 0 mm 2 mps 717 mmHg 82%
    05:00 +21°C° 0 mm 2 mps 717 mmHg 82%
    06:00 +21°C° 0 mm 2 mps 717 mmHg 83%
    07:00 +22°C° 0 mm 1 mps 718 mmHg 82%
    08:00 +24°C° 0 mm 1 mps 718 mmHg 79%
    09:00 +25°C° 0 mm 1 mps 718 mmHg 74%
    10:00 +25°C° 0 mm 0 mps 719 mmHg 69%
    11:00 +26°C° 0 mm 0 mps 719 mmHg 63%
    12:00 +27°C° 0 mm 0 mps 719 mmHg 58%
    13:00 +30°C° 0 mm 1 mps 719 mmHg 56%
    14:00 +31°C° 0 mm 1 mps 718 mmHg 53%
    15:00 +30°C° 0 mm 3 mps 718 mmHg 58%
    16:00 +31°C° 0 mm 2 mps 718 mmHg 52%
    17:00 +30°C° 0 mm 3 mps 718 mmHg 53%
    18:00 +29°C° 0 mm 3 mps 718 mmHg 64%
    19:00 +28°C° 0 mm 2 mps 718 mmHg 68%
    20:00 +27°C° 0 mm 2 mps 718 mmHg 76%
    21:00 +26°C° 0 mm 3 mps 718 mmHg 81%
    22:00 +25°C° 0 mm 3 mps 718 mmHg 81%
    23:00 +24°C° 0 mm 3 mps 718 mmHg 81%

    21 August, Wednesday

    Time Temperature Precipitation Wind Pressure Humidity
    00:00 +24°C° 0 mm 3 mps 718 mmHg 81%
    01:00 +23°C° 0 mm 2 mps 717 mmHg 81%
    02:00 +23°C° 0 mm 2 mps 717 mmHg 81%

    22 August, Thursday

    Time Temperature Precipitation Wind Pressure Humidity
    Show more